When you browse on this site, cookies collect data to enhance your experience and personalize the content and advertising you see.
Visit our Privacy Policy to learn more. By continuing to use the site, you agree to this use of cookies and data.
  • In Österreich
  • Länderverzeichnis
  • Für 7 Tage
  • Wassertemperatur
  • Satellitenkarten
  • Wetterkarte
  • News
  • Widgets
  • user-avatar
    Anmelden

    Stündliche Wetter Uige

    Heute, 26 März, Dienstag

    Zeit Temperatur Niederschläge Wind Luftdruck Luftfeuchtigkeit
    00:00 +22°C° 0 mm 1 m/S 691 mmHg 98%
    01:00 +22°C° 0 mm 1 m/S 691 mmHg 99%
    02:00 +22°C° 0.2 mm 1 m/S 691 mmHg 99%
    03:00 +22°C° 0.2 mm 1 m/S 691 mmHg 99%
    04:00 +22°C° 0.2 mm 1 m/S 691 mmHg 99%
    05:00 +20°C° 0 mm 0 m/S 691 mmHg 98%
    06:00 +21°C° 0 mm 0 m/S 691 mmHg 98%
    07:00 +21°C° 0 mm 0 m/S 692 mmHg 97%
    08:00 +24°C° 0.5 mm 1 m/S 692 mmHg 93%
    09:00 +25°C° 0.5 mm 1 m/S 693 mmHg 90%
    10:00 +27°C° 0.5 mm 1 m/S 693 mmHg 86%
    11:00 +27°C° 1.3 mm 1 m/S 693 mmHg 82%
    12:00 +28°C° 1.3 mm 1 m/S 692 mmHg 79%
    13:00 +29°C° 1.3 mm 1 m/S 692 mmHg 75%
    14:00 +29°C° 0.7 mm 1 m/S 691 mmHg 77%
    15:00 +28°C° 0.7 mm 1 m/S 691 mmHg 78%
    16:00 +28°C° 0.7 mm 2 m/S 691 mmHg 80%
    17:00 +26°C° 1.1 mm 1 m/S 691 mmHg 86%
    18:00 +25°C° 1.1 mm 1 m/S 691 mmHg 92%
    19:00 +23°C° 1.1 mm 1 m/S 691 mmHg 98%
    20:00 +23°C° 0.3 mm 1 m/S 692 mmHg 98%
    21:00 +22°C° 0.3 mm 1 m/S 692 mmHg 98%
    22:00 +22°C° 0.3 mm 1 m/S 692 mmHg 98%
    23:00 +22°C° 0 mm 1 m/S 692 mmHg 98%

    Morgen, 27 März, Mittwoch

    Zeit Temperatur Niederschläge Wind Luftdruck Luftfeuchtigkeit
    00:00 +22°C° 0 mm 1 m/S 692 mmHg 98%
    01:00 +21°C° 0 mm 1 m/S 691 mmHg 98%
    02:00 +22°C° 0 mm 1 m/S 691 mmHg 98%
    03:00 +22°C° 0 mm 1 m/S 691 mmHg 97%
    04:00 +22°C° 0 mm 1 m/S 691 mmHg 96%
    05:00 +22°C° 0 mm 1 m/S 691 mmHg 95%
    06:00 +22°C° 0 mm 1 m/S 691 mmHg 95%
    07:00 +22°C° 0 mm 1 m/S 692 mmHg 94%
    08:00 +25°C° 0 mm 1 m/S 692 mmHg 81%
    09:00 +28°C° 0 mm 1 m/S 693 mmHg 67%
    10:00 +31°C° 0 mm 1 m/S 694 mmHg 53%
    11:00 +33°C° 0 mm 1 m/S 693 mmHg 49%
    12:00 +34°C° 0 mm 1 m/S 693 mmHg 44%
    13:00 +35°C° 0 mm 1 m/S 692 mmHg 40%
    14:00 +35°C° 0 mm 1 m/S 692 mmHg 43%
    15:00 +34°C° 0 mm 1 m/S 691 mmHg 45%
    16:00 +34°C° 0 mm 1 m/S 691 mmHg 48%
    17:00 +31°C° 0 mm 1 m/S 691 mmHg 54%
    18:00 +29°C° 0 mm 1 m/S 691 mmHg 61%
    19:00 +27°C° 0 mm 1 m/S 691 mmHg 67%
    20:00 +26°C° 0 mm 1 m/S 691 mmHg 69%
    21:00 +25°C° 0 mm 1 m/S 692 mmHg 71%
    22:00 +25°C° 0 mm 1 m/S 692 mmHg 73%
    23:00 +24°C° 0 mm 1 m/S 692 mmHg 75%

    übermorgen, 28 März, Donnerstag

    Zeit Temperatur Niederschläge Wind Luftdruck Luftfeuchtigkeit
    00:00 +24°C° 0 mm 1 m/S 691 mmHg 76%
    01:00 +24°C° 0 mm 1 m/S 691 mmHg 78%
    02:00 +23°C° 0 mm 1 m/S 691 mmHg 79%
    03:00 +23°C° 0 mm 1 m/S 690 mmHg 81%
    04:00 +23°C° 0 mm 1 m/S 690 mmHg 82%
    05:00 +23°C° 0 mm 1 m/S 690 mmHg 83%
    06:00 +23°C° 0 mm 1 m/S 691 mmHg 83%
    07:00 +24°C° 0 mm 1 m/S 692 mmHg 84%
    08:00 +26°C° 0 mm 1 m/S 692 mmHg 76%
    09:00 +28°C° 0 mm 1 m/S 693 mmHg 68%
    10:00 +31°C° 0 mm 2 m/S 694 mmHg 60%
    11:00 +32°C° 0.2 mm 2 m/S 693 mmHg 56%
    12:00 +34°C° 0.2 mm 2 m/S 692 mmHg 53%
    13:00 +35°C° 0.2 mm 2 m/S 692 mmHg 49%
    14:00 +34°C° 0.2 mm 1 m/S 691 mmHg 50%
    15:00 +33°C° 0.2 mm 1 m/S 690 mmHg 52%
    16:00 +33°C° 0.2 mm 1 m/S 690 mmHg 53%
    17:00 +29°C° 0.1 mm 0 m/S 690 mmHg 60%
    18:00 +27°C° 0.1 mm 0 m/S 690 mmHg 66%
    19:00 +25°C° 0.1 mm 0 m/S 690 mmHg 73%
    20:00 +24°C° 1.2 mm 0 m/S 691 mmHg 80%
    21:00 +23°C° 1.2 mm 0 m/S 691 mmHg 87%
    22:00 +22°C° 1.2 mm 0 m/S 691 mmHg 94%
    23:00 +22°C° 0 mm 0 m/S 691 mmHg 95%

    29 März, Freitag

    Zeit Temperatur Niederschläge Wind Luftdruck Luftfeuchtigkeit
    00:00 +22°C° 0 mm 0 m/S 691 mmHg 95%
    01:00 +21°C° 0 mm 0 m/S 690 mmHg 96%
    02:00 +21°C° 3 mm 0 m/S 690 mmHg 97%
    03:00 +21°C° 3 mm 0 m/S 690 mmHg 97%
    04:00 +21°C° 3 mm 0 m/S 690 mmHg 98%
    05:00 +21°C° 1.5 mm 0 m/S 691 mmHg 98%
    06:00 +23°C° 1.5 mm 1 m/S 691 mmHg 97%
    07:00 +23°C° 1.5 mm 1 m/S 692 mmHg 97%
    08:00 +24°C° 0.5 mm 1 m/S 692 mmHg 95%
    09:00 +23°C° 0.5 mm 0 m/S 693 mmHg 93%
    10:00 +24°C° 0.5 mm 0 m/S 693 mmHg 91%
    11:00 +25°C° 1 mm 0 m/S 692 mmHg 87%
    12:00 +26°C° 1 mm 0 m/S 692 mmHg 82%
    13:00 +28°C° 1 mm 1 m/S 691 mmHg 78%
    14:00 +26°C° 0.2 mm 0 m/S 690 mmHg 78%
    15:00 +26°C° 0.2 mm 0 m/S 690 mmHg 79%
    16:00 +26°C° 0.2 mm 0 m/S 690 mmHg 79%
    17:00 +24°C° 0.6 mm 0 m/S 690 mmHg 83%
    18:00 +23°C° 0.6 mm 0 m/S 691 mmHg 87%
    19:00 +22°C° 0.6 mm 0 m/S 691 mmHg 91%
    20:00 +22°C° 0.5 mm 0 m/S 691 mmHg 91%
    21:00 +21°C° 0.5 mm 0 m/S 692 mmHg 92%
    22:00 +21°C° 0.5 mm 0 m/S 692 mmHg 92%
    23:00 +23°C° 0 mm 1 m/S 692 mmHg 93%

    30 März, Samstag

    Zeit Temperatur Niederschläge Wind Luftdruck Luftfeuchtigkeit
    00:00 +23°C° 0 mm 1 m/S 691 mmHg 93%
    01:00 +22°C° 0 mm 1 m/S 691 mmHg 94%
    02:00 +22°C° 0 mm 1 m/S 690 mmHg 94%
    03:00 +22°C° 0 mm 1 m/S 690 mmHg 94%
    04:00 +22°C° 0 mm 1 m/S 690 mmHg 94%
    05:00 +22°C° 0.1 mm 1 m/S 690 mmHg 93%
    06:00 +22°C° 0.1 mm 1 m/S 691 mmHg 93%
    07:00 +22°C° 0.1 mm 1 m/S 691 mmHg 92%
    08:00 +25°C° 0 mm 1 m/S 692 mmHg 82%
    09:00 +27°C° 0 mm 1 m/S 692 mmHg 71%
    10:00 +29°C° 0 mm 1 m/S 693 mmHg 61%
    11:00 +31°C° 0.1 mm 1 m/S 692 mmHg 55%
    12:00 +32°C° 0.1 mm 1 m/S 692 mmHg 50%
    13:00 +34°C° 0.1 mm 1 m/S 691 mmHg 44%
    14:00 +34°C° 0.1 mm 2 m/S 691 mmHg 47%
    15:00 +32°C° 0.1 mm 2 m/S 690 mmHg 51%
    16:00 +32°C° 0.1 mm 2 m/S 689 mmHg 54%
    17:00 +30°C° 0 mm 1 m/S 690 mmHg 61%
    18:00 +28°C° 0 mm 1 m/S 690 mmHg 67%
    19:00 +24°C° 0 mm 0 m/S 690 mmHg 74%
    20:00 +23°C° 0.5 mm 0 m/S 690 mmHg 79%
    21:00 +22°C° 0.5 mm 0 m/S 691 mmHg 84%
    22:00 +21°C° 0.5 mm 0 m/S 691 mmHg 89%
    23:00 +21°C° 0 mm 0 m/S 690 mmHg 91%

    31 März, Sonntag

    Zeit Temperatur Niederschläge Wind Luftdruck Luftfeuchtigkeit
    00:00 +20°C° 0 mm 0 m/S 690 mmHg 92%
    01:00 +22°C° 0 mm 1 m/S 690 mmHg 94%
    02:00 +22°C° 0 mm 1 m/S 690 mmHg 94%
    03:00 +22°C° 0 mm 1 m/S 690 mmHg 94%
    04:00 +22°C° 0 mm 1 m/S 689 mmHg 94%
    05:00 +22°C° 0 mm 1 m/S 690 mmHg 93%
    06:00 +22°C° 0 mm 1 m/S 690 mmHg 92%
    07:00 +23°C° 0 mm 1 m/S 691 mmHg 91%
    08:00 +26°C° 0 mm 1 m/S 691 mmHg 78%
    09:00 +29°C° 0 mm 1 m/S 692 mmHg 65%
    10:00 +32°C° 0 mm 1 m/S 692 mmHg 53%
    11:00 +33°C° 0 mm 1 m/S 692 mmHg 48%
    12:00 +35°C° 0 mm 1 m/S 692 mmHg 44%
    13:00 +35°C° 0 mm 0 m/S 691 mmHg 40%
    14:00 +31°C° 0.2 mm 0 m/S 690 mmHg 52%
    15:00 +28°C° 0.2 mm 0 m/S 689 mmHg 64%
    16:00 +25°C° 0.2 mm 0 m/S 689 mmHg 76%
    17:00 +26°C° 14 mm 1 m/S 689 mmHg 83%
    18:00 +25°C° 14 mm 1 m/S 689 mmHg 90%
    19:00 +24°C° 14 mm 2 m/S 689 mmHg 96%
    20:00 +23°C° 7.7 mm 1 m/S 690 mmHg 97%
    21:00 +23°C° 7.7 mm 1 m/S 691 mmHg 97%
    22:00 +23°C° 7.7 mm 1 m/S 692 mmHg 97%
    23:00 +22°C° 0.6 mm 1 m/S 691 mmHg 97%
    Mehr zeigen